RH
53 55 65 88 90 84 89 80 72 68 61 54 43 35 38 27 28 28 29 28 30 22 10 5 2 2 2 2 2 2 2 1 1 1 1 2 1 2 1 1 2 2 2 1 2
71 64 70 80 97 77 77 68 71 69 66 63 50 36 36 32 30 34 31 23 21 17 16 4 2 2 2 2 2 1 1 1 1 1 1 1 1 2 2 1 2 3 2 2 3
71 78 80 78 83 84 73 78 64 80 78 68 58 35 36 33 37 37 36 23 18 13 10 5 2 2 2 1 1 1 1 1 1 1 1 1 1 1 1 1 2 3 3 2 2
64 79 84 93 93 78 81 74 64 76 84 66 52 42 37 34 42 42 37 26 22 13 8 4 2 2 2 1 1 1 1 1 1 1 1 1 1 1 1 1 2 2 1 2 2
72 92 100 100 90 96 96 77 72 60 61 64 58 41 40 42 44 50 46 28 20 13 5 4 2 2 2 1 1 1 1 1 1 1 1 1 1 1 1 1 1 2 2 3 2
76 100 100 100 100 95 77 67 73 56 48 60 67 46 42 47 48 51 52 33 18 14 7 5 4 2 2 1 1 1 1 1 1 1 1 1 1 1 1 1 1 2 2 2 2
100 100 100 100 100 55 53 61 56 62 49 50 53 49 46 54 56 62 48 39 23 19 9 6 4 2 2 2 1 1 1 1 1 1 1 1 1 1 1 1 2 2 2 2 2
100 70 80 83 96 50 48 54 45 51 44 45 52 52 49 50 55 68 48 29 27 25 18 9 4 2 2 2 2 1 1 1 1 1 1 1 1 1 2 2 2 2 2 3 3
100 86 82 52 54 50 53 48 44 43 35 36 44 50 56 51 67 81 72 39 30 24 18 11 5 2 2 2 2 1 1 1 1 1 1 1 2 2 2 2 2 2 3 3 3
100 88 58 54 59 60 59 46 34 39 39 38 42 50 53 51 82 82 62 46 32 27 21 14 6 3 2 2 2 2 2 2 2 2 1 1 2 2 2 2 2 3 3 4 4
100 58 49 49 61 60 37 35 33 32 36 38 42 58 57 74 86 77 69 55 43 26 24 19 10 4 2 2 2 2 2 2 2 2 2 2 2 2 2 3 3 3 4 5 5
100 68 45 53 65 52 48 39 30 33 41 45 49 60 66 64 83 88 71 68 51 43 27 20 16 3 3 3 3 2 3 3 2 2 2 2 2 2 2 3 3 3 4 5 5
78 68 57 55 60 55 40 40 32 32 42 44 61 65 86 90 87 86 81 63 56 43 33 22 11 4 3 3 3 2 3 3 3 3 2 2 2 2 3 4 4 4 5 5 7
38 53 74 66 54 43 37 36 37 38 40 50 58 78 89 83 90 89 77 64 67 46 35 22 6 4 4 4 3 3 3 4 3 3 3 2 2 2 3 4 5 6 5 6 10
68 89 64 59 41 51 37 39 39 44 48 61 79 80 77 80 88 82 75 61 67 50 32 16 5 4 4 4 3 3 4 4 4 3 3 2 2 3 3 7 9 8 8 10 15
89 64 52 42 52 51 45 46 46 51 56 68 86 95 91 95 96 97 76 61 55 41 29 17 5 4 3 4 4 3 4 4 4 4 3 3 3 3 5 10 12 12 13 19 24
68 59 44 49 51 49 54 51 53 62 65 77 93 87 96 100 100 91 80 62 55 43 26 12 4 4 4 4 4 3 4 4 4 4 4 3 3 4 7 12 13 15 18 24 49
50 72 43 36 60 69 60 67 65 65 90 97 98 88 100 100 98 83 87 64 44 38 25 8 4 4 4 4 4 3 5 5 4 4 4 4 4 5 8 14 17 20 25 35 75
76 62 46 59 64 55 70 70 73 78 88 94 98 100 100 100 91 92 54 50 44 30 18 6 5 4 4 4 4 3 5 5 5 5 4 4 4 5 10 18 22 27 44 100 100
68 58 50 76 64 69 70 87 93 92 95 98 92 100 100 100 100 87 50 49 37 21 10 5 5 5 4 4 4 4 6 6 5 5 4 4 5 6 13 24 28 32 67 85 100
52 52 77 82 70 71 88 85 98 99 100 100 100 100 100 100 95 76 50 47 31 19 7 5 5 5 4 4 4 4 6 6 6 5 5 5 5 6 15 28 32 38 51 98 100
47 54 65 69 65 78 85 90 88 100 100 100 100 100 100 100 82 64 52 41 29 12 6 5 5 5 4 4 4 4 6 7 7 5 6 5 5 7 15 30 38 51 98 100 100
65 61 69 66 74 84 91 98 100 100 100 100 100 100 100 81 66 55 40 25 14 8 6 6 4 4 4 4 5 4 6 7 8 6 5 6 6 6 12 29 40 52 99 100 100
70 72 87 84 90 97 95 100 100 100 100 100 100 99 83 66 53 37 24 16 11 8 6 5 4 4 4 4 5 4 7 7 8 7 6 7 7 7 9 21 40 52 94 100 100
84 79 86 96 100 100 100 100 100 100 100 100 96 82 65 52 35 26 21 14 11 8 6 5 4 3 4 4 5 5 7 8 8 7 7 7 8 9 8 13 37 56 62 100 100
95 100 100 90 100 100 100 100 100 100 100 98 79 68 58 40 30 26 18 14 12 8 7 4 4 3 4 4 5 5 7 9 10 8 7 7 9 9 10 10 25 53 54 95 100
100 100 100 100 100 100 100 100 100 100 90 70 66 56 38 32 28 22 18 15 11 8 6 4 3 3 4 4 5 4 7 9 10 10 8 7 7 12 11 13 17 35 64 90 100
Wind_Speed
50 51 53 53 59 62 62 66 69 72 75 82 85 92 96 104 107 109 112 110 109 111 85 71 47 47 54 61 64 64 64 66 65 69 74 84 91 91 77 83 84 84 83 76 74
51 53 55 56 61 66 69 71 71 73 77 85 88 93 98 107 111 114 118 114 110 105 102 70 49 46 50 55 59 61 64 64 63 61 69 80 88 88 86 84 87 90 87 80 84
51 54 57 58 63 66 70 74 77 76 79 86 90 94 101 108 113 118 121 118 117 102 96 76 49 45 44 53 56 58 60 62 64 65 67 73 80 87 88 86 87 92 94 88 85
53 54 56 61 64 71 70 75 80 79 82 86 92 95 103 109 116 120 124 125 124 111 100 79 58 46 41 45 52 52 56 56 61 64 65 68 75 81 88 88 93 94 92 90 85
58 59 58 61 65 70 75 76 80 84 86 88 94 97 104 110 117 122 126 127 124 107 96 86 65 50 45 44 44 46 52 53 60 65 67 67 72 77 80 90 90 92 92 90 90
61 61 62 62 67 73 77 82 82 87 89 89 93 98 103 110 117 123 127 131 127 115 104 90 76 56 49 46 43 42 44 48 54 63 69 71 74 74 82 87 89 91 97 93 90
59 62 67 66 70 74 80 83 86 88 90 92 95 98 104 111 117 124 129 134 132 127 114 105 86 60 52 46 42 40 36 39 46 56 67 74 79 82 84 89 92 92 90 89 88
59 63 65 70 72 77 83 86 89 88 91 93 96 99 106 112 118 123 131 135 140 136 129 118 91 63 51 46 43 37 31 33 37 48 60 71 80 83 86 89 90 87 89 90 91
61 66 68 74 77 82 85 88 87 88 91 93 97 101 107 116 122 126 131 140 140 138 134 123 98 70 53 45 43 36 29 28 31 41 51 64 73 79 87 93 85 86 91 94 91
64 69 73 77 82 83 84 89 89 89 91 94 97 104 109 117 121 126 134 141 144 142 141 128 108 77 57 46 43 36 27 24 26 36 47 55 64 75 85 90 88 87 92 94 93
66 73 77 80 84 84 87 88 90 90 92 94 100 104 113 119 123 130 135 140 145 146 148 141 122 83 59 52 44 37 26 20 21 29 41 50 59 73 80 85 86 86 86 93 91
69 77 79 80 84 83 86 88 91 93 94 97 102 107 114 118 125 129 136 141 146 150 152 150 130 86 59 54 45 36 24 18 20 26 37 47 56 67 77 78 80 82 83 90 84
74 76 80 79 83 84 90 93 93 95 95 101 101 110 113 119 125 131 135 141 146 151 155 153 120 87 62 56 46 36 24 17 17 21 34 45 52 60 71 74 76 78 82 82 81
79 81 79 80 84 86 91 96 96 95 99 102 105 109 116 123 126 133 138 142 145 153 159 147 113 87 62 58 45 34 23 15 14 20 32 42 52 59 68 71 71 73 77 80 83
80 80 79 81 84 89 91 95 97 97 102 106 107 114 120 125 132 136 137 141 144 153 156 140 112 84 62 57 44 33 22 12 11 20 32 40 49 55 63 66 70 72 75 83 88
76 77 85 91 88 89 94 99 98 100 103 107 111 115 123 129 132 136 141 144 151 153 154 140 109 78 61 56 43 31 19 10 10 19 29 37 45 54 63 69 74 76 84 89 88
78 82 87 85 86 92 96 102 102 102 107 107 113 119 125 129 131 135 138 145 150 156 149 134 99 76 61 55 41 28 18 7 9 19 29 38 45 56 66 72 77 80 85 92 100
82 83 88 86 90 94 99 99 100 106 107 110 115 123 128 130 133 137 142 150 153 153 150 124 92 75 58 54 39 25 15 6 8 21 31 41 50 59 69 75 80 86 94 94 93
84 88 89 87 92 97 98 100 103 105 109 114 119 123 130 131 135 140 148 149 156 150 144 114 86 72 57 50 36 22 13 4 10 21 33 43 51 65 75 78 85 93 98 105 111
89 91 89 89 95 97 99 101 102 107 111 116 125 127 129 131 138 145 148 154 150 149 127 102 80 65 53 47 34 19 11 5 12 21 32 44 54 69 79 83 89 96 103 105 110
90 93 90 96 102 102 102 104 107 110 113 118 125 128 129 133 141 148 151 154 145 144 121 94 74 61 49 44 33 16 11 6 12 22 30 46 57 71 82 87 92 97 101 111 112
92 93 96 97 100 103 105 106 111 112 116 122 126 126 129 139 142 148 154 151 145 133 113 89 72 57 45 39 28 14 10 7 14 23 32 44 58 73 83 90 94 101 111 124 123
94 96 99 101 103 103 106 108 112 114 118 122 123 127 134 140 146 150 148 138 133 119 105 87 74 53 40 35 24 13 10 10 15 23 34 45 58 73 85 92 98 106 117 122 121
97 98 100 101 104 106 108 113 116 118 120 121 125 133 138 142 142 139 133 131 120 112 99 82 72 49 39 32 23 12 10 13 17 25 31 45 58 70 85 93 102 108 121 125 123
100 100 102 104 108 109 112 114 117 119 122 125 132 135 137 136 131 131 130 122 115 105 97 87 65 45 37 28 20 11 12 15 18 27 34 44 57 67 80 90 103 109 119 127 125
104 103 106 106 110 112 114 115 119 121 123 129 135 135 134 128 128 123 123 115 109 99 96 81 56 39 33 25 19 11 14 18 21 27 35 44 56 64 75 87 100 110 112 128 127
106 106 106 109 111 113 117 118 120 125 128 134 133 129 120 119 119 118 114 110 103 99 89 73 50 37 29 24 18 13 16 21 25 30 37 45 54 63 71 81 95 106 118 124 127
Wind_Direction
349 350 350 349 347 349 346 344 343 343 343 343 343 342 341 345 348 349 349 351 351 352 348 342 321 294 278 273 265 265 264 258 251 241 236 235 237 235 228 231 230 232 233 232 228
346 346 346 348 346 346 344 343 342 341 341 341 341 340 340 343 345 347 347 348 349 354 352 341 330 305 284 277 272 267 264 261 255 248 240 237 236 234 232 228 230 229 229 230 233
341 339 342 343 344 344 342 340 341 339 339 339 339 338 340 344 345 346 346 348 351 355 352 345 326 320 299 283 276 269 260 258 253 247 240 234 234 234 234 230 230 227 229 228 229
338 337 334 337 340 340 340 339 339 338 338 338 338 337 339 342 344 345 346 347 350 353 354 345 332 320 309 291 278 270 264 254 251 249 244 236 232 230 231 231 228 227 229 228 227
339 336 333 335 337 338 337 338 337 338 337 336 336 336 338 339 342 344 345 346 352 353 355 350 342 331 318 304 290 273 264 252 246 242 239 236 231 228 227 229 230 226 227 228 228
336 336 334 335 335 335 335 335 336 337 336 335 335 335 337 338 342 343 343 345 351 353 354 353 345 332 323 310 298 282 263 253 242 237 234 229 226 224 221 225 225 223 224 224 226
336 340 339 338 335 335 332 334 335 335 335 335 335 335 335 338 339 341 343 344 347 348 355 355 346 336 326 319 306 293 273 254 243 234 229 224 220 217 218 219 220 220 224 223 224
336 335 335 334 332 333 334 333 333 335 333 334 333 334 335 338 339 340 342 345 346 349 352 355 348 339 332 327 316 303 283 259 245 237 228 221 215 214 212 218 216 215 218 220 220
333 331 330 330 330 331 334 333 333 333 335 334 334 333 334 337 339 339 339 342 344 348 352 353 349 339 332 331 326 309 295 271 247 238 230 222 215 213 211 213 212 209 213 215 216
331 329 327 327 331 333 333 334 334 332 332 332 332 334 335 337 336 337 338 340 343 347 349 353 350 345 336 332 331 315 303 281 252 237 228 220 214 209 209 212 209 207 207 209 213
327 323 325 327 331 330 331 333 333 332 332 332 333 333 334 335 335 336 337 339 341 347 346 350 351 344 338 341 333 320 309 291 262 237 225 214 211 208 208 210 207 205 204 206 208
322 321 322 326 328 328 329 330 333 334 333 331 332 332 334 334 334 333 335 336 340 342 344 347 347 344 340 345 335 323 313 297 267 233 218 212 207 206 207 206 205 201 200 204 202
315 318 321 324 325 326 327 329 332 332 333 332 330 330 330 332 331 331 333 336 339 340 341 346 345 346 342 346 338 327 318 304 272 233 217 208 205 202 204 202 200 196 196 197 198
315 316 320 321 323 324 328 330 330 331 331 333 331 328 330 331 331 331 334 336 336 338 340 345 346 345 341 347 339 329 321 311 272 225 213 206 200 199 198 198 194 192 190 188 190
314 316 320 321 321 323 325 328 329 330 329 331 330 331 331 330 331 331 332 334 334 336 340 344 344 345 343 346 339 330 324 310 258 219 209 203 200 195 193 187 183 186 182 183 186
314 317 316 317 319 322 323 327 327 328 329 329 330 329 330 330 330 330 331 332 334 336 339 341 341 345 344 344 338 329 324 312 242 214 205 199 195 189 184 181 178 180 178 180 180
310 312 314 317 319 321 323 325 326 326 328 328 328 329 328 328 328 328 328 330 332 334 337 340 340 342 344 342 337 328 320 310 230 203 199 194 191 184 178 177 177 177 178 179 179
305 310 314 316 318 320 322 323 323 326 326 326 325 328 327 327 326 327 328 329 332 333 337 340 340 342 342 341 336 327 319 305 214 198 194 189 187 178 174 175 174 177 177 178 178
304 308 312 314 316 317 321 321 321 322 324 325 325 325 325 325 325 325 328 329 331 333 335 339 337 341 339 339 334 325 311 279 205 197 190 188 184 174 170 173 172 175 175 174 176
303 307 310 312 314 316 318 319 319 320 321 323 324 323 324 323 322 324 327 328 331 333 335 340 338 338 337 337 332 321 300 257 199 196 188 182 179 173 170 172 173 175 175 177 181
302 304 307 310 312 313 315 318 318 318 319 320 321 322 322 320 322 324 325 328 329 330 334 340 339 335 334 333 330 315 283 239 203 186 188 180 176 174 171 172 174 174 175 178 181
302 303 306 308 310 311 313 315 318 318 319 320 320 320 320 321 324 324 324 326 326 329 333 338 339 334 330 330 326 305 269 223 202 188 183 177 175 175 174 174 176 175 176 181 184
299 302 304 306 308 309 311 314 316 317 317 318 319 318 321 322 322 322 324 327 328 330 334 335 338 332 330 328 321 294 248 208 204 196 181 178 178 177 177 177 177 178 180 184 188
298 300 302 303 306 308 309 311 315 316 315 317 317 318 321 321 321 323 324 326 328 329 333 335 336 329 325 324 316 284 238 208 197 195 186 178 177 179 179 179 180 182 182 186 188
295 298 300 302 304 307 308 310 313 314 314 315 317 320 320 321 321 321 323 326 327 329 332 333 333 326 321 321 309 268 227 211 201 192 189 182 179 180 181 181 183 186 186 187 188
294 296 298 301 304 306 308 308 311 312 313 315 317 319 319 319 320 321 324 325 327 329 330 332 331 322 320 316 304 255 215 203 204 199 189 186 181 182 182 183 185 186 189 189 191
292 294 296 299 304 305 306 308 310 312 314 315 316 318 320 320 321 322 323 324 326 328 329 329 326 320 315 309 294 250 209 198 199 204 192 190 186 183 183 184 186 188 190 192 193